Regional Weather Roundup
Issued by NWS

Home | Current Version | Previous Version | Graphics & Text | Print | Product List | Glossary On
Versions: 1 2 3 4 5 6 7 8 9 10 11 12 13 14 15 16 17 18 19 20 21 22 23 24 25 26 27 28 29 30 31 32 33 34 35 36 37 38 39 40 41 42 43 44 45 46 47 48 49 50
000
ASUS43 KTOP 010808
RWRKS

WEATHER ROUNDUP FOR KANSAS
NATIONAL WEATHER SERVICE GOODLAND KS
200 AM CST SUN FEB 01 2015

NOTE:  "FAIR" INDICATES FEW OR NO CLOUDS BELOW 12,000 FEET WITH NO
SIGNIFICANT WEATHER AND/OR OBSTRUCTIONS TO VISIBILITY.

KSZ001>006-013>018-027>032-041>047-010900-
NORTHWEST KANSAS

CITY           SKY/WX    TMP DP  RH WIND       PRES   REMARKS
GOODLAND       CLOUDY    23  21  92 N22G31    29.92R WCI   8
HAYS           CLOUDY    30  21  69 N26G37    29.82R WCI  16
HILL CITY      MIX PCPN  26  22  84 N22       29.89R WCI  12
RUSSELL        LGT SNOW  32  32 100 NW25G32   29.78R VSB 1   WCI  19
$$

KSZ061>065-074>080-084>089-010900-
SOUTHWEST KANSAS

CITY           SKY/WX    TMP DP  RH WIND       PRES   REMARKS
DODGE CITY     CLOUDY    33  30  88 N20G29    29.82R WCI  21
ELKHART          N/A     37  33  85 NW8         N/A
GARDEN CITY    CLOUDY    32  30  92 N22G31    29.85R WCI  19
LIBERAL        MOCLDY    37  34  87 NW9       29.87R
PRATT          DRIZZLE   36  34  93 NW23G31   29.78R WCI  24
$$

KSZ066>073-081>083-090>101-010900-
SOUTHEAST KANSAS

CITY           SKY/WX    TMP DP  RH WIND       PRES   REMARKS
CHANUTE        LGT RAIN  40  39  97 S8        29.79F FOG
COFFEYVILLE    CLOUDY    41  40  96 S12       29.80F
HUTCHINSON     LGT RAIN  42  40  92 SW10      29.73F FOG
MEDICINE LODGE   N/A     42  41  96 W12       29.76F
NEWTON         CLOUDY    39  36  87 SW13      29.75F WCI  32
PARSONS        LGT RAIN  41  40  96 S9        29.81F FOG
WICHITA INTL   CLOUDY    41  41 100 SW12      29.75F FOG
WICHITA JABRA  CLOUDY    41  41 100 SW14      29.74F
WICHITA MCCONL CLOUDY    41  39  93 S13       29.75F
WINFIELD       CLOUDY    41  29  62 SW10      29.78F
$$

KSZ007>012-019>026-033>040-048>060-102>105-010900-
NORTHEAST KANSAS

CITY           SKY/WX    TMP DP  RH WIND       PRES   REMARKS
CONCORDIA      LGT SNOW  33  33 100 NW8       29.76S FOG
EMPORIA        LGT RAIN  39  39 100 S12       29.74F WCI  32
LAWRENCE       LGT SNOW  32  31  96 E7        29.79F FOG
MANHATTAN      LGT RAIN  35  34  96 N5        29.75F FOG
MARYSVILLE     LGT SNOW  32  32 100 CALM      29.76F
OLATHE IND     LGT SNOW  34  33  96 S9        29.79F FOG
OLATHE EXE     LGT SNOW  33  33 100 S7        29.79F FOG
SALINA         LGT RAIN  41  39  93 W6G18     29.73F
TOPEKA BILLARD LGT RAIN  33  32  96 E6        29.78F FOG
TOPEKA FORBES  LGT RAIN  37  35  92 SE6       29.76F FOG
$$



USA.gov is the U.S. government's official web portal to all federal, state and local government web resources and services.